ELEKTRON 3 DEB, 831

Orbit data source: Space-Track

ELEKTRON 3 DEB, 831 is space debris in LEO originally from a launch on Fri, 10 Jul 1964 UTC launched from the Tyuratam Missile And Space Complex (TTMTR). Debris objects in space refer to the collection of defunct objects orbiting the Earth. Examples of debris include non-operational satellites, rocket bodies, and fragments generated from explosions, collisions, or faulty payload assembly.

Loading next visibility...
Identifier
831, 1964-038C
Orbit
LEO
Last TLE update
15 hours ago
Origin
Manufacturer
OKB-1
Mission
Spacecraft
Bus & Motor
ADAPTER, Unknown motor
Mass
Unknown
Launch date (UTC)
1964-07-10 (61 years ago)
Launch vehicle
Unknown
Launch site
Tyuratam Missile And Space Complex (TTMTR)
Object type
Payload
Rocket body
Debris
Shape & HBR
Unknown
Radar Cross Section
Medium (>0.1 m² and <1 m²)

Expand to show TLE details & history

TLE from 15 hours ago
0 ELEKTRON 3 DEB
1 00831U 64038C   25133.71912679  .00012276  00000-0  11587-2 0  9991
2 00831  60.6675 130.4968 1309346 178.3924 182.1940 12.66668936315035
Epoch: 2025-05-13T17:15Z
Definitive object data (Epoch: 2025-05-13T17:15:32.554Z)
Latitude
0.00001°
Longitude
-0.10266°
Altitude
2,414.357 km
Speed
6.279 km/s
True Right ascension
08h 41m 59s
True Declination
0° 00' 00"
Sunlit
Object was in daylight at TLE epoch
Visualization TLE readout
Latitude
42.56125°
Longitude
29.17409°
Altitude
1,936.549 km
Speed
6.686 km/s
Apparent Right ascension
08h 18m 19s
Apparent Declination
10° 19' 26"
Sunlit
Object is in daylight
Visualization observer readout
Local Sidereal Time
17:13:38
Azimuth
308.996° NW
Elevation
-24.052°
Doppler factor
1
Orbital elements
Apogee altitude
2,412.467 km
Perigee altitude
376.992 km
Semi-major axis
7,772.867 km
Eccentricity
0.1309346
Inclination
60.6675°
RAAN
130.4968°
Arg. of periapsis
178.3924°
True anomaly
181.70069°
Mean anomaly
182.194°
Eccentric anomaly
181.94003°
Mean motion
3.16717 °/min
BSTAR
0.0011587
Orbital period
113.67 mins
Loading maneuver chart data...
Loading SW <> Apogee altitude chart data...
Loading historical data...
Loading historical data...
Loading historical data...
Loading historical data...
Loading historical data...
Loading historical data...
Loading historical data...

ELEKTRON 3 DEB Visibility forecast

Observer location: undefined°, undefined°

Span
Click to sort rows by Start time (UTC) header in descending order
Start Az.
Max El. time (UTC)
Max El. Az.
Max El.
End time (UTC)
End Az.
9 mins2025-05-14 09:01:42.760Z333.101° NNW2025-05-14 09:06:42.760Z23.737° NE26.344°2025-05-14 09:10:42.760Z94.756° ESE
5 mins2025-05-14 11:01:42.760Z296.516° NW2025-05-14 11:04:42.760Z244.661° WSW24.833°2025-05-14 11:06:42.760Z198.972° SSW
18 mins2025-05-14 23:38:42.760Z160.355° S2025-05-14 23:48:42.760Z108.937° ESE26.168°2025-05-14 23:56:42.760Z61.068° ENE
22 mins2025-05-15 01:33:42.760Z213.617° SW2025-05-15 01:46:42.760Z56.352° ENE44.937°2025-05-15 01:55:42.760Z38.587° NE
17 mins2025-05-15 03:35:42.760Z263.32° W2025-05-15 03:45:42.760Z323.437° NNW30.194°2025-05-15 03:52:42.760Z23.753° NE
8 mins2025-05-15 05:42:42.760Z320.426° NNW2025-05-15 05:46:42.760Z349.008° N15.861°2025-05-15 05:50:42.760Z23.294° NE
6 mins2025-05-15 07:44:42.760Z346.469° N2025-05-15 07:47:42.760Z16.291° NNE16.805°2025-05-15 07:50:42.760Z53.262° ENE
|